Location: Unspecified
(0.0000°N, 0.0000°E)
Time: 08:03:44
(UTC+00:00)

A-11 Canister half - Visible Passes

Search period start: 20 October 2021 00:00
Search period end: 30 October 2021 00:00
Orbit: 1525 x 1683 km, 47.3° (Epoch: 19 October)

Date Brightness Start Highest point End Pass type
(mag) Time Alt. Az. Time Alt. Az. Time Alt. Az.
23 Oct 10.8 20:37:56 10° NNW 20:38:48 13° NNW 20:38:48 13° NNW visible
24 Oct 10.4 20:16:25 10° NNW 20:18:59 20° N 20:18:59 20° N visible
25 Oct 10.0 19:54:54 10° NNW 19:59:21 28° N 19:59:21 28° N visible
26 Oct 9.6 19:33:23 10° NNW 19:39:56 35° NNE 19:39:56 35° NNE visible
26 Oct 11.1 21:37:48 10° WNW 21:38:20 12° WNW 21:38:20 12° WNW visible
27 Oct 9.4 19:11:54 10° NNW 19:20:13 35° NE 19:20:48 35° ENE visible
27 Oct 10.5 21:16:02 10° WNW 21:19:13 23° WNW 21:19:13 23° WNW visible
28 Oct 9.5 18:50:27 10° N 18:58:32 33° NE 19:02:01 26° E visible
28 Oct 9.8 20:54:16 10° NW 21:00:29 41° W 21:00:29 41° W visible
29 Oct 9.6 18:29:00 10° N 18:36:51 30° NE 18:43:46 13° ESE visible
29 Oct 9.4 20:32:32 10° NW 20:41:40 56° SW 20:42:17 55° SW visible
